User: anonymous   Login
Location: Contre
(49.7477°N, 2.0963°E)
Time: 04:53:41
(UTC+00:00)
Language:

YAOGAN 1 - Orbit

View from above orbital plane
View from above orbital plane
View from above satellite
View from above satellite

Ground track
Ground track

The orbit data is extracted from the following two-line orbital elements,

1 29092U 06015A   24111.81386142  .00003037  00000-0  36183-3 0  9993
2 29092  97.8096 138.3808 0001518  96.5981 263.5407 14.85049039972814
Epoch (UTC): 20 April 2024 19:31:57
Eccentricity: 0.0001518
inclination: 97.8096°
perigee height: 612 km
apogee height: 614 km
right ascension of ascending node: 138.3808°
argument of perigee: 96.5981°
revolutions per day: 14.85049039
mean anomaly at epoch: 263.5407°
orbit number at epoch: 97281

The dashed part of the orbit path shows where the satellite is in the earth's shadow,  

DLR